Simultaneous Nadir Overpasses (SNOs) Predictions

Prediction of SNOs between GOES-16 and TERRA Satellite Orbit:

Table of predicted SNOs for the next 14.0 days since TLE Epoch: 5/26/2018
Index Date Time (GOES-16) GOES-16 Lat,Lon TERRA Lat,Lon Distance(km) Time Diff (sec)
1 05/26/2018 03:22:20 0.01, -75.18 0.42, -73.31 213.68 80
2 05/26/2018 15:43:36 -0.01, -75.20 0.67, -78.47 371.50 80
3 05/28/2018 15:31:25 -0.00, -75.20 0.08, -75.51 35.01 80
4 05/30/2018 15:21:55 0.01, -75.21 -0.57, -72.56 302.09 80
5 05/31/2018 03:43:19 -0.01, -75.21 -0.56, -77.75 289.01 80
6 06/02/2018 03:28:29 -0.01, -75.22 0.10, -74.80 48.59 80
7 06/04/2018 03:16:18 -0.01, -75.24 0.71, -71.84 386.56 80
8 06/04/2018 15:37:34 0.01, -75.26 0.37, -77.00 198.24 80
9 06/06/2018 15:28:03 0.01, -75.29 -0.23, -74.05 140.61 80
10 06/07/2018 03:49:27 -0.01, -75.29 -0.83, -79.25 449.64 80
11 06/08/2018 15:15:53 0.01, -75.32 -0.91, -71.10 479.99 80




NCC Satellite Simultaneous Nadir Overpasses (SNOs) Prediction Service
